Kahului, HI

5:06 AM HST on February 21, 2017 (GMT -1000)
Kahului

Weather History for PHOG - March, 2013

Change the Weather History Date:

Monday, March 4, 2013

  Actual Average Record
Temperature  
Mean Temperature 75 °F 72 °F  
Max Temperature 80 °F 81 °F 88 °F (1952)
Min Temperature 69 °F 64 °F 55 °F (1970)
Degree Days  
Heating Degree Days 0 0  
Month to date heating degree days 0 0  
Since 1 July heating degree days 0 0  
Cooling Degree Days 10 7  
Month to date cooling degree days 37 28  
Year to date cooling degree days 470 437  
Growing Degree Days 24 (Base 50)    
Moisture  
Dew Point 59 °F    
Average Humidity 58    
Maximum Humidity 70    
Minimum Humidity 45    
Precipitation  
Precipitation 0.00 in 0.08 in 2.50 in (1989)
Month to date precipitation 0.03 0.28  
Year to date precipitation 4.98 5.04  
Snow  
Snow 0.00 in - - ()
Month to date snowfall 0.0  
Since 1 July snowfall 0.0  
Snow Depth 0.00 in    
Sea Level Pressure  
Sea Level Pressure 30.17 in    
Wind  
Wind Speed 16 mph (NE)    
Max Wind Speed 26 mph    
Max Gust Speed 33 mph    
Visibility 10 miles    
Events      
T = Trace of Precipitation, MM = Missing Value Source: NWS Daily Summary

Daily Weather History Graph

Daily Weather History Graph

Search for Another Location

Airport or City:

Trip Planner

Search our weather history database for the weather conditions in past years. The results will help you decide how hot, cold, wet, or windy it might be!

Date:

Astronomy

Mar. 04, 2013 Rise Set
Actual Time 6:43 AM HST 6:31 PM HST
Civil Twilight 6:21 AM HST 6:53 PM HST
Nautical Twilight 5:55 AM HST 7:19 PM HST
Astronomical Twilight 5:29 AM HST 7:45 PM HST
Moon 12:34 AM HST (3/4) 11:55 AM HST (3/4)
Length of Visible Light 12h 32m
Length of Day
11h 48m
Waning Gibbous, 50% of the Moon is Illuminated
Mar 4
Waning Gibbous
Mar 11
New
Mar 19
First Quarter
Mar 26
Full
Apr 2
Last Quarter

Hourly Weather History & Observations

Time (HST) Temp. Dew Point Humidity Pressure Visibility Wind Dir Wind Speed Gust Speed Precip Events Conditions
12:54 AM 69.1 °F 57.0 °F 65% 30.19 in 10.0 mi NNE 11.5 mph - N/A   Scattered Clouds
1:54 AM 70.0 °F 57.9 °F 65% 30.18 in 10.0 mi NE 8.1 mph - N/A   Overcast
2:54 AM 70.0 °F 59.0 °F 68% 30.17 in 10.0 mi NE 10.4 mph - N/A   Mostly Cloudy
3:54 AM 71.1 °F 57.9 °F 63% 30.17 in 10.0 mi NE 13.8 mph 23.0 mph N/A   Overcast
4:54 AM 71.1 °F 57.9 °F 63% 30.18 in 10.0 mi NE 15.0 mph 20.7 mph N/A   Mostly Cloudy
5:54 AM 71.1 °F 55.0 °F 57% 30.19 in 10.0 mi ENE 12.7 mph 19.6 mph N/A   Overcast
6:54 AM 71.1 °F 59.0 °F 66% 30.20 in 10.0 mi NE 17.3 mph 27.6 mph N/A   Scattered Clouds
7:54 AM 71.1 °F 57.9 °F 63% 30.21 in 10.0 mi NE 5.8 mph - N/A   Partly Cloudy
8:54 AM 73.9 °F 57.0 °F 55% 30.22 in 10.0 mi NE 12.7 mph 21.9 mph N/A   Partly Cloudy
9:54 AM 75.9 °F 57.9 °F 54% 30.21 in 10.0 mi NE 17.3 mph 28.8 mph N/A   Scattered Clouds
10:54 AM 77.0 °F 57.0 °F 50% 30.20 in 10.0 mi NE 17.3 mph 28.8 mph N/A   Partly Cloudy
11:54 AM 77.0 °F 60.1 °F 56% 30.18 in 10.0 mi ENE 21.9 mph 29.9 mph N/A   Partly Cloudy
12:54 PM 79.0 °F 55.9 °F 45% 30.15 in 10.0 mi NE 23.0 mph 31.1 mph N/A   Partly Cloudy
1:54 PM 78.1 °F 60.1 °F 54% 30.12 in 10.0 mi NE 21.9 mph 29.9 mph N/A   Partly Cloudy
2:54 PM 78.1 °F 57.9 °F 50% 30.11 in 10.0 mi NE 18.4 mph 29.9 mph N/A   Partly Cloudy
4:54 PM 75.0 °F 62.1 °F 64% 30.12 in 10.0 mi ENE 17.3 mph 31.1 mph N/A   Partly Cloudy
5:54 PM 73.0 °F 61.0 °F 66% 30.12 in 10.0 mi NE 18.4 mph 26.5 mph N/A   Partly Cloudy
6:54 PM 71.1 °F 61.0 °F 70% 30.14 in 10.0 mi NE 18.4 mph 24.2 mph N/A   Partly Cloudy
7:54 PM 71.1 °F 61.0 °F 70% 30.16 in 10.0 mi NE 17.3 mph 23.0 mph N/A   Partly Cloudy
9:54 PM 71.1 °F 57.9 °F 63% 30.19 in 10.0 mi NE 15.0 mph - N/A   Mostly Cloudy
10:54 PM 71.1 °F 57.9 °F 63% 30.18 in 10.0 mi NE 15.0 mph 21.9 mph N/A   Partly Cloudy
11:54 PM 70.0 °F 57.9 °F 65% 30.18 in 10.0 mi NE 12.7 mph - N/A   Mostly Cloudy